[[{"header":{"parameterUnit":"m.s-1","parameterCategory":2,"la1":30.2991,"la2":30.254,"lo1":-89.0895,"lo2":-89.0444,"dy":0.0017,"dx":0.0017,"nx":28,"ny":28,"refTime":"2024-08-14T09:00:00:Z","depth":"0","parameterNumber":2,"parameterNumberName":"U-component_of_CURRENTS"},"data":[0,0,0,0,0,0,0,0,0,0,0,0,0,0,0,0,0,0,0,0,0,0,0,0,0,0,0,0,0,0,0,0,0,0,0,0,0,0,0,0,0,0,0,0,0,0,0,0,0,0,0,0,0,0,0,0,0,0,-0.3947,-0.3947,0,-0.3937,-0.3937,-0.3936,-0.3972,-0.3974,-0.3975,-0.3977,-0.3837,-0.3832,-0.3827,0,0,0,0,0,0,0,0,0,0,0,0,0,-0.3903,-0.3904,-0.3947,-0.3947,-0.3947,-0.3937,-0.3937,-0.3936,-0.3972,-0.3974,-0.3976,-0.3977,-0.3839,-0.3833,-0.3827,0,0,0,0,0,0,0,0,0,0,0,0,0,-0.3906,-0.3904,-0.3946,-0.3967,-0.397,-0.3937,-0.3937,-0.3936,-0.3972,-0.3974,-0.3976,-0.3978,-0.3841,-0.3833,-0.3826,-0.3733,0,0,-0.3802,-0.3799,0,0,0,0,0,0,0,0,-0.3906,-0.3907,-0.3964,-0.3966,-0.3968,-0.3963,-0.3871,-0.3863,-0.3971,-0.3966,-0.3977,-0.3979,-0.3868,-0.3859,-0.3847,-0.3726,-0.372,-0.3802,-0.3797,-0.3794,-0.3791,0,0,0,0,0,0,0,-0.3906,-0.3907,-0.3938,-0.3964,-0.3967,-0.3946,-0.3949,-0.3869,-0.3898,-0.3966,-0.397,-0.3976,-0.3868,-0.3854,-0.3843,-0.3718,-0.3802,-0.3795,-0.379,-0.3787,-0.3393,-0.3388,0,0,0,0,0,0,-0.3919,-0.3908,-0.3938,-0.3938,-0.3948,-0.3946,-0.3949,-0.3958,-0.3902,-0.3898,-0.3974,-0.3978,-0.3866,-0.3852,-0.3839,-0.3682,-0.3794,-0.3786,-0.3782,-0.3399,-0.3392,-0.3386,0,0,0,0,0,0,-0.3918,-0.3922,-0.3939,-0.3926,-0.3928,-0.3945,-0.3954,-0.3957,-0.3957,-0.391,-0.3904,-0.3975,-0.3867,-0.3849,-0.375,-0.3678,-0.3783,-0.3776,-0.3406,-0.3397,-0.3389,-0.3395,0,0,0,0,0,0,-0.3917,-0.3922,-0.3928,-0.3927,-0.3929,-0.3906,-0.3953,-0.3955,-0.3959,-0.3964,-0.3907,-0.3897,-0.3868,-0.3761,-0.3742,-0.367,-0.377,-0.3414,-0.3402,-0.3392,-0.3402,-0.3387,-0.3374,0,0,0,0,0,-0.3915,-0.3907,-0.3928,-0.3932,-0.3939,-0.3904,-0.3901,-0.3918,-0.3957,-0.3932,-0.3893,-0.3899,-0.3676,-0.3751,-0.373,-0.3654,-0.3419,-0.3405,-0.3393,-0.3408,-0.339,-0.3375,0,0,0,0,0,0,-0.3898,-0.391,-0.3934,-0.3934,-0.3919,-0.3912,-0.3897,-0.3917,-0.3871,-0.3879,-0.3848,-0.383,-0.3707,-0.3661,-0.3745,-0.3494,-0.3537,-0.3519,-0.3555,-0.3538,-0.3524,-0.3461,-0.3764,0,0,0,0,0,-0.3897,-0.3892,-0.3897,-0.3896,-0.3888,-0.3895,-0.3888,-0.3899,-0.3867,-0.3855,-0.3817,-0.3737,-0.3627,-0.3578,-0.3483,-0.3363,-0.3304,-0.3282,-0.3269,-0.3258,-0.3181,-0.3053,-0.3023,-0.3343,-0.3343,-0.3343,0,0,-0.3889,-0.3899,-0.3896,-0.3891,-0.3885,-0.3845,-0.3894,-0.3876,-0.3824,-0.3837,-0.3748,-0.3696,-0.3582,-0.3447,-0.3384,-0.3409,-0.3142,-0.3242,-0.3235,-0.3161,-0.3036,-0.3006,-0.2979,-0.3334,-0.3335,-0.3337,0,0,-0.3869,-0.3877,-0.3868,-0.3842,-0.3836,-0.3815,-0.3812,-0.3799,-0.3769,-0.3697,-0.3658,-0.354,-0.3445,-0.3304,-0.323,-0.3062,-0.3078,-0.3061,-0.2946,-0.2825,-0.2799,-0.2775,-0.2718,-0.2689,-0.3054,-0.3054,-0.3054,0,-0.3861,-0.3834,-0.3854,-0.383,-0.3771,-0.3799,-0.3732,-0.3703,-0.3658,-0.3581,-0.3664,-0.3417,-0.3343,-0.3094,-0.3041,-0.3027,-0.3011,-0.3048,-0.2815,-0.2789,-0.2765,-0.2711,-0.2679,-0.3053,-0.3053,-0.3053,-0.3053,0,-0.3837,-0.3789,-0.3766,-0.3729,-0.3683,-0.3613,-0.3574,-0.3517,-0.3512,-0.3476,-0.329,-0.3204,-0.3035,-0.3005,-0.2982,-0.2735,-0.2802,-0.2833,-0.2884,-0.2735,-0.2686,-0.2653,-0.3051,-0.3052,-0.3052,-0.3052,0,0,-0.3845,-0.3756,-0.3746,-0.3655,-0.3593,-0.3531,-0.3427,-0.3284,-0.3187,-0.3164,-0.3004,-0.2821,-0.2804,-0.2705,-0.2656,-0.2552,-0.2396,-0.2631,-0.2626,-0.2618,-0.2199,-0.2141,-0.2101,-0.2445,-0.2438,-0.2432,-0.2259,0,-0.3785,-0.3661,-0.3649,-0.3478,-0.3362,-0.3314,-0.3199,-0.3095,-0.3032,-0.2904,-0.2789,-0.265,-0.2683,-0.2619,-0.2504,-0.242,-0.2298,-0.2441,-0.2297,-0.2291,-0.2295,-0.2052,-0.1888,-0.1709,-0.2227,-0.2221,-0.2217,0,-0.3744,-0.3632,-0.3435,-0.324,-0.3196,-0.3128,-0.2892,-0.2807,-0.2651,-0.2611,-0.2477,-0.2445,-0.2225,-0.2328,-0.208,-0.2205,-0.215,-0.2123,-0.2117,-0.2012,-0.2164,-0.1919,-0.1629,-0.1722,-0.2166,-0.217,-0.2174,0,-0.3595,-0.3475,-0.3266,-0.3198,-0.3013,-0.2916,-0.2853,-0.2704,-0.2582,-0.243,-0.236,-0.2171,-0.2068,-0.1972,-0.1913,-0.2002,-0.1711,-0.1823,-0.1701,-0.1704,-0.1485,-0.1477,-0.1278,-0.1584,-0.1584,-0.1585,-0.1585,0,-0.342,-0.3255,-0.3199,-0.3027,-0.2861,-0.2806,-0.2595,-0.2538,-0.2393,-0.2188,-0.2203,-0.2002,-0.1982,-0.1847,-0.1822,-0.1638,-0.1617,-0.1577,-0.1593,-0.1488,-0.1482,-0.1494,-0.1583,-0.1578,-0.158,-0.1581,-0.1582,0,-0.3179,-0.3125,-0.2905,-0.2757,-0.2742,-0.2628,-0.2508,-0.2339,-0.2281,-0.2023,-0.1973,-0.1844,-0.165,-0.1645,-0.1471,-0.1481,-0.1316,-0.1291,-0.1203,-0.1207,-0.1196,-0.1291,-0.0999,-0.097,-0.1103,-0.1099,-0.1096,0,-0.3009,-0.2854,-0.2734,-0.2647,-0.2569,-0.2441,-0.2318,-0.2272,-0.2105,-0.1854,-0.1697,-0.1515,-0.1238,-0.1061,-0.1047,-0.0966,-0.1089,-0.0847,-0.0909,-0.106,-0.118,-0.1271,-0.1278,-0.0663,-0.0657,-0.0652,-0.0648,0,-0.268,-0.2668,-0.2516,-0.2339,-0.2235,-0.2082,-0.1947,-0.1843,-0.1685,-0.1514,-0.1174,-0.0954,-0.0754,-0.0522,-0.0535,-0.0541,-0.0838,-0.074,-0.086,-0.0721,-0.0826,-0.0856,-0.1008,-0.0602,-0.0607,-0.061,-0.0613,-0.0614,-0.251,-0.2374,-0.2199,-0.2034,-0.1914,-0.1683,-0.1516,-0.1373,-0.1125,-0.084,-0.0735,-0.0416,-0.0157,-0.0084,-0.0188,-0.0343,-0.0428,-0.0384,-0.0464,-0.0531,-0.0511,-0.0586,-0.024,-0.0242,-0.0244,-0.0246,-0.0247,0,-0.2227,-0.2065,-0.1884,-0.1651,-0.1412,-0.1419,-0.1189,-0.1006,-0.0705,-0.0524,-0.0252,0.0097,0.0311,0.0256,0.0173,-0.0022,-0.0158,-0.0185,-0.027,-0.0276,-0.0268,-0.0263,0.0054,0.0054,0.0054,0.0054,0.0055,0.0055,-0.2036,-0.176,-0.1637,-0.12,-0.104,-0.0696,-0.0547,-0.0382,-0.0252,0.0032,0.018,0.0258,0.0396,0.0369,0.0103,-0.0025,-0.0195,-0.0165,-0.0333,-0.0384,-0.0411,-0.0438,-0.0454,-0.0181,-0.0181,-0.0249,-0.025,-0.0251]},{"header":{"parameterUnit":"m.s-1","parameterCategory":2,"la1":30.2991,"la2":30.254,"lo1":-89.0895,"lo2":-89.0444,"dy":0.0017,"dx":0.0017,"nx":28,"ny":28,"refTime":"2024-08-14T09:00:00:Z","depth":"0","parameterNumber":3,"parameterNumberName":"V-component_of_CURRENTS"},"data":[0,0,0,0,0,0,0,0,0,0,0,0,0,0,0,0,0,0,0,0,0,0,0,0,0,0,0,0,0,0,0,0,0,0,0,0,0,0,0,0,0,0,0,0,0,0,0,0,0,0,0,0,0,0,0,0,0,0,-0.1053,-0.1051,0,-0.0856,-0.0853,-0.0851,-0.0727,-0.0727,-0.0726,-0.0726,-0.0518,-0.0514,-0.0509,0,0,0,0,0,0,0,0,0,0,0,0,0,-0.1086,-0.1087,-0.1053,-0.1051,-0.1048,-0.0856,-0.0853,-0.085,-0.0727,-0.0727,-0.0726,-0.0725,-0.052,-0.0514,-0.0508,0,0,0,0,0,0,0,0,0,0,0,0,0,-0.0997,-0.1087,-0.1053,-0.0966,-0.0956,-0.0857,-0.0853,-0.0849,-0.0727,-0.0727,-0.0726,-0.0725,-0.0522,-0.0515,-0.0507,-0.0474,0,0,-0.0484,-0.0481,0,0,0,0,0,0,0,0,-0.1002,-0.0995,-0.0981,-0.0972,-0.0961,-0.0817,-0.0788,-0.0724,-0.0727,-0.0812,-0.0726,-0.0725,-0.062,-0.0604,-0.0565,-0.0465,-0.0456,-0.0483,-0.0479,-0.0475,-0.0473,0,0,0,0,0,0,0,-0.1009,-0.1002,-0.0972,-0.0979,-0.0966,-0.0855,-0.0843,-0.0774,-0.072,-0.0804,-0.0795,-0.0777,-0.0614,-0.0573,-0.0559,-0.0453,-0.0483,-0.0477,-0.0472,-0.0469,-0.0273,-0.0273,0,0,0,0,0,0,-0.1052,-0.101,-0.0979,-0.0967,-0.0983,-0.0856,-0.0843,-0.0862,-0.0721,-0.0699,-0.0778,-0.0772,-0.0586,-0.0568,-0.0552,-0.0406,-0.0475,-0.0468,-0.0464,-0.0274,-0.0273,-0.0272,0,0,0,0,0,0,-0.1054,-0.1053,-0.0987,-0.0982,-0.0967,-0.0859,-0.0879,-0.0859,-0.0818,-0.0701,-0.0679,-0.0759,-0.0585,-0.0562,-0.0494,-0.0401,-0.0465,-0.0458,-0.0275,-0.0274,-0.0273,-0.0178,0,0,0,0,0,0,-0.1056,-0.1055,-0.1087,-0.0987,-0.0969,-0.0931,-0.0879,-0.0855,-0.0809,-0.0799,-0.0678,-0.0657,-0.0583,-0.0506,-0.0487,-0.0392,-0.0452,-0.0275,-0.0274,-0.0273,-0.0182,-0.0174,-0.0168,0,0,0,0,0,-0.1059,-0.1102,-0.1091,-0.1086,-0.1017,-0.0931,-0.0911,-0.0827,-0.0809,-0.0789,-0.0716,-0.0661,-0.0484,-0.0501,-0.0477,-0.0377,-0.0276,-0.0274,-0.0273,-0.0186,-0.0176,-0.0168,0,0,0,0,0,0,-0.1134,-0.1091,-0.1077,-0.1108,-0.103,-0.0911,-0.0895,-0.0839,-0.0764,-0.0763,-0.066,-0.0634,-0.0534,-0.0502,-0.0522,-0.0328,-0.0368,-0.0362,-0.0309,-0.03,-0.0292,-0.0296,-0.0446,0,0,0,0,0,-0.1172,-0.1197,-0.1114,-0.1139,-0.111,-0.1008,-0.0968,-0.0908,-0.0826,-0.0791,-0.0708,-0.062,-0.051,-0.0448,-0.0376,-0.0277,-0.0296,-0.0203,-0.0196,-0.0189,-0.0183,-0.0186,-0.0178,-0.0268,-0.0268,-0.0268,0,0,-0.1209,-0.119,-0.1204,-0.1156,-0.1097,-0.1001,-0.0982,-0.0927,-0.0821,-0.0783,-0.0657,-0.0605,-0.0491,-0.0364,-0.0314,-0.0318,-0.0172,-0.0187,-0.0181,-0.0178,-0.0183,-0.0174,-0.0167,-0.0267,-0.0267,-0.0267,0,0,-0.1246,-0.128,-0.1278,-0.1202,-0.1118,-0.1038,-0.1027,-0.0916,-0.085,-0.0746,-0.0668,-0.0575,-0.0444,-0.0306,-0.0223,-0.0145,-0.0151,-0.0131,-0.0057,-0.006,-0.0052,-0.0045,-0.0049,-0.0043,-0.0105,-0.0104,-0.0104,0,-0.1288,-0.1249,-0.1258,-0.1188,-0.1098,-0.1049,-0.0947,-0.0868,-0.0744,-0.069,-0.0707,-0.0498,-0.039,-0.0183,-0.0127,-0.0112,-0.0153,-0.0084,-0.0048,-0.0042,-0.0037,-0.0042,-0.0037,-0.01,-0.01,-0.0101,-0.0101,0,-0.1272,-0.1208,-0.1194,-0.1081,-0.1012,-0.0921,-0.0804,-0.0746,-0.0689,-0.0606,-0.0477,-0.037,-0.0247,-0.0171,-0.0097,0.003,-0.0025,-0.0054,-0.0065,-0.0022,-0.0031,-0.0027,-0.0093,-0.0095,-0.0096,-0.0097,0,0,-0.14,-0.1212,-0.1195,-0.1086,-0.0924,-0.0864,-0.0722,-0.057,-0.0512,-0.0419,-0.0332,-0.0102,-0.0121,-0.0032,0.0049,0.0097,0.0149,0.0046,0.0044,0.0053,0.0112,0.0157,0.0164,0.0095,0.0095,0.0096,0.0095,0,-0.1343,-0.1166,-0.1094,-0.0895,-0.0764,-0.0671,-0.0556,-0.0444,-0.0377,-0.0314,-0.0201,-0.011,-0.0041,-0.0005,0.0062,0.0099,0.0157,0.0151,0.0059,0.0057,0.0101,0.0171,0.0277,0.0291,0.0098,0.0098,0.0099,0,-0.1296,-0.1171,-0.0955,-0.0749,-0.0704,-0.0608,-0.0456,-0.0349,-0.0251,-0.0224,-0.0145,-0.0121,0.0026,0.0014,0.0121,0.0086,0.0123,0.0144,0.0143,0.0154,0.0109,0.0212,0.0303,0.0371,0.0103,0.0103,0.0103,0,-0.1279,-0.1065,-0.0881,-0.0791,-0.0579,-0.0513,-0.0435,-0.0329,-0.0243,-0.0193,-0.0164,-0.0086,-0.0021,-0.0009,0.0089,0.0069,0.0136,0.0104,0.0191,0.0192,0.0257,0.0263,0.0416,0.0173,0.0173,0.0173,0.0173,0,-0.1151,-0.1013,-0.0876,-0.0745,-0.0627,-0.0518,-0.0406,-0.0348,-0.0261,-0.0131,-0.0133,-0.0015,-0.0033,0.0022,0.0051,0.0142,0.0109,0.0223,0.0208,0.0293,0.0303,0.0339,0.0339,0.0173,0.0173,0.0173,0.0173,0,-0.1077,-0.0949,-0.0775,-0.0614,-0.0574,-0.0512,-0.0369,-0.0283,-0.0237,-0.0078,-0.0055,0.003,0.0099,0.0085,0.0121,0.0148,0.0252,0.0234,0.0339,0.0338,0.0457,0.0457,0.0555,0.0644,0.0293,0.0294,0.0295,0,-0.0983,-0.0873,-0.0737,-0.064,-0.0549,-0.0445,-0.0338,-0.0271,-0.0149,0.0028,0.0135,0.0196,0.0353,0.0356,0.0322,0.0304,0.0371,0.0416,0.044,0.0512,0.0498,0.0493,0.0561,0.0556,0.0559,0.0562,0.0564,0,-0.0824,-0.0818,-0.0683,-0.0509,-0.0389,-0.0277,-0.0125,-0.0047,0.0103,0.0252,0.051,0.0617,0.0619,0.0653,0.0545,0.0554,0.0501,0.047,0.0524,0.072,0.0744,0.0806,0.0494,0.0587,0.0585,0.0583,0.0582,0.0581,-0.0737,-0.0655,-0.048,-0.0312,-0.0203,-0.0046,0.0075,0.0234,0.0443,0.0717,0.0827,0.1051,0.0962,0.083,0.0783,0.0734,0.0711,0.0806,0.0798,0.0783,0.09,0.0645,0.073,0.0728,0.0727,0.0726,0.0725,0,-0.0493,-0.0373,-0.0248,-0.0019,0.0129,0.0125,0.0309,0.0445,0.0718,0.0938,0.1204,0.1403,0.1331,0.1161,0.1018,0.1058,0.1062,0.1103,0.1138,0.1192,0.0961,0.1007,0.1182,0.1182,0.1182,0.1182,0.1182,0.1182,-0.0315,-0.0074,-0.0011,0.031,0.0412,0.0614,0.0706,0.0835,0.0982,0.1344,0.1571,0.1732,0.1604,0.134,0.1267,0.1291,0.137,0.1389,0.1394,0.124,0.1212,0.1185,0.1232,0.1452,0.1452,0.1695,0.1697,0.1698]}],[{"header":{"parameterUnit":"m.s-1","parameterCategory":2,"la1":30.2991,"la2":30.254,"lo1":-89.0895,"lo2":-89.0444,"dy":0.0017,"dx":0.0017,"nx":28,"ny":28,"refTime":"2024-08-14T09:00:00:Z","depth":"2","parameterNumber":2,"parameterNumberName":"U-component_of_CURRENTS"},"data":[0,0,0,0,0,0,0,0,0,0,0,0,0,0,0,0,0,0,0,0,0,0,0,0,0,0,0,0,0,0,0,0,0,0,0,0,0,0,0,0,0,0,0,0,0,0,0,0,0,0,0,0,0,0,0,0,0,0,-0.1744,-0.1745,0,-0.1927,-0.193,-0.1933,-0.199,-0.1988,-0.1987,-0.1986,-0.2014,-0.2016,-0.2018,0,0,0,0,0,0,0,0,0,0,0,0,0,-0.152,-0.1523,-0.1744,-0.1746,-0.1747,-0.1927,-0.193,-0.1933,-0.199,-0.1988,-0.1987,-0.1985,-0.2014,-0.2016,-0.2019,0,0,0,0,0,0,0,0,0,0,0,0,0,-0.1657,-0.1525,-0.1744,-0.1793,-0.1798,-0.1926,-0.193,-0.1934,-0.1991,-0.1988,-0.1986,-0.1984,-0.2013,-0.2016,-0.2019,-0.2082,0,0,-0.2029,-0.203,0,0,0,0,0,0,0,0,-0.1649,-0.1666,-0.1784,-0.1789,-0.1796,-0.1928,-0.1861,-0.1974,-0.1991,-0.1924,-0.1986,-0.1983,-0.1968,-0.1975,-0.2026,-0.2084,-0.2085,-0.2029,-0.2031,-0.2032,-0.2033,0,0,0,0,0,0,0,-0.164,-0.1659,-0.1823,-0.1786,-0.1793,-0.1831,-0.1848,-0.1885,-0.1958,-0.193,-0.1933,-0.1944,-0.1971,-0.2023,-0.2026,-0.2085,-0.2029,-0.2032,-0.2034,-0.2035,-0.219,-0.2192,0,0,0,0,0,0,-0.1603,-0.165,-0.1817,-0.1828,-0.1709,-0.1836,-0.1856,-0.1893,-0.1962,-0.1969,-0.1946,-0.1946,-0.2019,-0.2023,-0.2027,-0.2008,-0.2032,-0.2035,-0.2037,-0.2188,-0.2191,-0.2193,0,0,0,0,0,0,-0.1599,-0.1618,-0.181,-0.1736,-0.1762,-0.1841,-0.1883,-0.1898,-0.1939,-0.1974,-0.198,-0.1969,-0.2017,-0.2023,-0.2056,-0.2013,-0.2037,-0.204,-0.2185,-0.2189,-0.2192,-0.2032,0,0,0,0,0,0,-0.1592,-0.1616,-0.1644,-0.1735,-0.1765,-0.1846,-0.1885,-0.1903,-0.1946,-0.1948,-0.1996,-0.1998,-0.2016,-0.2051,-0.2059,-0.2017,-0.2042,-0.2182,-0.2187,-0.2191,-0.2034,-0.2029,-0.2025,0,0,0,0,0,-0.1584,-0.1616,-0.1646,-0.1666,-0.1798,-0.1844,-0.1863,-0.1917,-0.1949,-0.1951,-0.2005,-0.1996,-0.2083,-0.2055,-0.2064,-0.2022,-0.218,-0.2186,-0.219,-0.2036,-0.203,-0.2025,0,0,0,0,0,0,-0.1544,-0.1627,-0.1661,-0.1722,-0.1761,-0.185,-0.1876,-0.1917,-0.1974,-0.198,-0.2021,-0.2026,-0.2046,-0.2085,-0.2054,-0.2094,-0.2133,-0.214,-0.2013,-0.2008,-0.2003,-0.1969,-0.2045,0,0,0,0,0,-0.1548,-0.1586,-0.1659,-0.1703,-0.1725,-0.1806,-0.1841,-0.187,-0.1927,-0.1952,-0.2009,-0.2062,-0.2084,-0.2081,-0.2135,-0.2145,-0.2146,-0.2136,-0.2131,-0.2126,-0.2115,-0.2103,-0.2092,-0.2209,-0.2209,-0.2209,0,0,-0.1539,-0.1594,-0.1614,-0.1694,-0.1745,-0.177,-0.1823,-0.186,-0.1862,-0.1943,-0.1997,-0.2056,-0.2096,-0.211,-0.212,-0.2119,-0.2092,-0.2132,-0.2125,-0.2118,-0.2106,-0.2094,-0.2082,-0.2213,-0.2212,-0.2212,0,0,-0.1521,-0.1594,-0.1609,-0.1631,-0.1687,-0.1745,-0.1746,-0.1843,-0.1859,-0.1917,-0.197,-0.1995,-0.2085,-0.2071,-0.2074,-0.2084,-0.2085,-0.2128,-0.2036,-0.2024,-0.2011,-0.2001,-0.1948,-0.1934,-0.2099,-0.2099,-0.2099,0,-0.1515,-0.1552,-0.1614,-0.1619,-0.1644,-0.1724,-0.1733,-0.1758,-0.1854,-0.1873,-0.1909,-0.2036,-0.2046,-0.2013,-0.201,-0.2054,-0.2063,-0.2028,-0.2006,-0.1996,-0.1987,-0.1937,-0.1923,-0.2092,-0.2093,-0.2093,-0.2094,0,-0.148,-0.1516,-0.1523,-0.1569,-0.1599,-0.1617,-0.1655,-0.1697,-0.1764,-0.1808,-0.1843,-0.1887,-0.1952,-0.1951,-0.1967,-0.1921,-0.195,-0.2006,-0.1988,-0.1963,-0.1915,-0.1902,-0.2082,-0.2084,-0.2086,-0.2088,0,0,-0.1464,-0.1499,-0.15,-0.1521,-0.1575,-0.1606,-0.1602,-0.1642,-0.1662,-0.1723,-0.1745,-0.1749,-0.1811,-0.1823,-0.1848,-0.181,-0.1717,-0.1874,-0.1877,-0.1765,-0.1672,-0.1585,-0.1565,-0.1779,-0.1778,-0.1776,-0.1643,0,-0.1431,-0.1439,-0.1463,-0.1483,-0.1507,-0.1555,-0.1559,-0.159,-0.1643,-0.169,-0.1676,-0.1725,-0.1741,-0.1774,-0.173,-0.1763,-0.169,-0.1747,-0.1766,-0.1765,-0.1643,-0.1549,-0.1479,-0.1348,-0.1632,-0.163,-0.1629,0,-0.1378,-0.1413,-0.142,-0.1476,-0.149,-0.1505,-0.1568,-0.1572,-0.1599,-0.1635,-0.1652,-0.17,-0.1642,-0.1684,-0.1619,-0.1671,-0.1647,-0.1643,-0.164,-0.1607,-0.1656,-0.1437,-0.1317,-0.161,-0.1612,-0.1613,-0.1614,0,-0.1348,-0.1379,-0.1402,-0.1408,-0.1478,-0.1487,-0.1528,-0.1568,-0.1576,-0.1602,-0.1641,-0.1618,-0.1619,-0.1591,-0.1562,-0.1608,-0.1498,-0.1564,-0.1438,-0.1432,-0.1397,-0.1389,-0.1486,-0.1486,-0.1487,-0.1487,-0.1487,0,-0.131,-0.1326,-0.139,-0.1402,-0.1435,-0.1478,-0.1508,-0.1535,-0.1569,-0.1583,-0.1612,-0.1617,-0.1608,-0.1561,-0.1533,-0.1421,-0.146,-0.1381,-0.1381,-0.134,-0.1329,-0.1607,-0.1623,-0.1482,-0.1483,-0.1484,-0.1485,0,-0.1262,-0.1295,-0.1332,-0.1405,-0.1418,-0.1442,-0.1489,-0.1504,-0.1549,-0.1563,-0.1569,-0.1594,-0.1532,-0.148,-0.142,-0.1367,-0.1287,-0.1235,-0.1156,-0.1148,-0.1234,-0.1245,-0.1076,-0.1071,-0.1068,-0.1065,-0.1062,0,-0.1234,-0.1251,-0.1322,-0.1332,-0.1361,-0.1398,-0.1412,-0.1474,-0.1489,-0.1546,-0.154,-0.1507,-0.1482,-0.1328,-0.1209,-0.1072,-0.1156,-0.0927,-0.0983,-0.1168,-0.1187,-0.1203,-0.1218,-0.0865,-0.0861,-0.0857,-0.0855,0,-0.12,-0.1227,-0.1257,-0.1274,-0.1294,-0.1318,-0.1345,-0.1361,-0.1428,-0.145,-0.1472,-0.1468,-0.1343,-0.119,-0.0995,-0.0905,-0.0946,-0.0854,-0.106,-0.0984,-0.096,-0.0982,-0.1005,-0.0825,-0.0828,-0.0831,-0.0832,-0.0833,-0.1162,-0.1163,-0.1185,-0.119,-0.1206,-0.1206,-0.119,-0.1234,-0.1245,-0.1237,-0.1326,-0.1265,-0.1246,-0.0908,-0.079,-0.0634,-0.0721,-0.0685,-0.0699,-0.0716,-0.072,-0.0691,-0.0504,-0.0505,-0.0506,-0.0507,-0.0507,0,-0.1092,-0.1084,-0.1088,-0.1084,-0.1055,-0.1097,-0.1108,-0.1073,-0.1049,-0.1066,-0.1062,-0.0925,-0.0816,-0.0755,-0.0507,-0.0434,-0.0449,-0.0375,-0.0459,-0.0486,-0.0512,-0.051,-0.0236,-0.0235,-0.0234,-0.0233,0,0,-0.1048,-0.1009,-0.1003,-0.0918,-0.0909,-0.0834,-0.0817,-0.0794,-0.078,-0.0724,-0.0682,-0.0737,-0.0771,-0.0546,-0.0465,-0.0337,-0.0398,-0.0266,-0.0487,-0.0617,-0.0642,-0.0687,-0.0714,0,0,0,0,0]},{"header":{"parameterUnit":"m.s-1","parameterCategory":2,"la1":30.2991,"la2":30.254,"lo1":-89.0895,"lo2":-89.0444,"dy":0.0017,"dx":0.0017,"nx":28,"ny":28,"refTime":"2024-08-14T09:00:00:Z","depth":"2","parameterNumber":3,"parameterNumberName":"V-component_of_CURRENTS"},"data":[0,0,0,0,0,0,0,0,0,0,0,0,0,0,0,0,0,0,0,0,0,0,0,0,0,0,0,0,0,0,0,0,0,0,0,0,0,0,0,0,0,0,0,0,0,0,0,0,0,0,0,0,0,0,0,0,0,0,-0.0547,-0.0547,0,-0.0474,-0.0473,-0.0472,-0.0406,-0.0405,-0.0405,-0.0404,-0.0237,-0.0233,-0.0229,0,0,0,0,0,0,0,0,0,0,0,0,0,-0.0617,-0.0616,-0.0547,-0.0547,-0.0546,-0.0474,-0.0473,-0.0471,-0.0406,-0.0405,-0.0405,-0.0404,-0.0238,-0.0233,-0.0228,0,0,0,0,0,0,0,0,0,0,0,0,0,-0.0567,-0.0616,-0.0547,-0.0507,-0.0503,-0.0474,-0.0472,-0.0471,-0.0406,-0.0405,-0.0405,-0.0404,-0.0239,-0.0234,-0.0228,-0.0206,0,0,-0.0209,-0.0207,0,0,0,0,0,0,0,0,-0.057,-0.0564,-0.0513,-0.051,-0.0505,-0.0451,-0.0436,-0.0378,-0.0406,-0.044,-0.0404,-0.0404,-0.0302,-0.0291,-0.0276,-0.0198,-0.0191,-0.0209,-0.0205,-0.0203,-0.0201,0,0,0,0,0,0,0,-0.0574,-0.0567,-0.0515,-0.0513,-0.0508,-0.0488,-0.048,-0.0425,-0.0372,-0.0437,-0.0433,-0.0429,-0.0298,-0.0282,-0.0271,-0.0188,-0.0209,-0.0204,-0.02,-0.0198,0.0069,0.0072,0,0,0,0,0,0,-0.059,-0.057,-0.0517,-0.0513,-0.054,-0.0488,-0.0478,-0.0467,-0.0374,-0.0361,-0.043,-0.0427,-0.0292,-0.0278,-0.0265,-0.0184,-0.0203,-0.0197,-0.0194,0.0065,0.0069,0.0073,0,0,0,0,0,0,-0.0592,-0.0586,-0.052,-0.0543,-0.0534,-0.0488,-0.0475,-0.0466,-0.044,-0.0371,-0.0355,-0.0413,-0.0291,-0.0273,-0.0211,-0.0178,-0.0194,-0.0189,0.0061,0.0066,0.0071,-0.0053,0,0,0,0,0,0,-0.0594,-0.0586,-0.0585,-0.0544,-0.0533,-0.0524,-0.0475,-0.0465,-0.0441,-0.0435,-0.0351,-0.0336,-0.0289,-0.0221,-0.0205,-0.017,-0.0184,0.0057,0.0063,0.007,-0.0053,-0.0052,-0.0052,0,0,0,0,0,-0.0596,-0.0596,-0.0585,-0.0579,-0.0532,-0.0526,-0.0519,-0.0481,-0.0441,-0.045,-0.0375,-0.0338,-0.0165,-0.0216,-0.0198,-0.016,0.0053,0.0062,0.0069,-0.0053,-0.0052,-0.0052,0,0,0,0,0,0,-0.062,-0.0588,-0.0576,-0.0564,-0.0559,-0.0516,-0.051,-0.0481,-0.0429,-0.0407,-0.0331,-0.0311,-0.0227,-0.0168,-0.0224,-0.0049,-0.0033,-0.0022,-0.0132,-0.013,-0.013,-0.0199,-0.0179,0,0,0,0,0,-0.0629,-0.0622,-0.0598,-0.0593,-0.0587,-0.0547,-0.0536,-0.0513,-0.0463,-0.0439,-0.0375,-0.0274,-0.0181,-0.0143,-0.0057,0.0003,0.0029,0.0061,0.0062,0.0061,0.0027,0.0088,0.0087,0.0099,0.0099,0.0099,0,0,-0.0638,-0.062,-0.0615,-0.0599,-0.0579,-0.0567,-0.0537,-0.0524,-0.0501,-0.0427,-0.0363,-0.028,-0.0159,-0.008,-0.0033,-0.0034,0.0079,0.0071,0.0068,0.0034,0.0095,0.0093,0.0091,0.0104,0.0103,0.0102,0,0,-0.0651,-0.0635,-0.0633,-0.063,-0.0614,-0.0587,-0.0585,-0.0542,-0.0514,-0.0456,-0.037,-0.0306,-0.0153,-0.0098,-0.0034,0.0021,0.0084,0.011,0.0037,0.0097,0.0094,0.0091,0.012,0.0121,0.0103,0.0102,0.0102,0,-0.0662,-0.065,-0.0637,-0.0635,-0.0625,-0.0593,-0.0586,-0.0557,-0.0498,-0.0468,-0.044,-0.0235,-0.0171,-0.0072,-0.0055,0.0009,0.0061,0.0005,0.0086,0.0085,0.0084,0.0114,0.0117,0.0097,0.0098,0.0099,0.0099,0,-0.0676,-0.0665,-0.0664,-0.0642,-0.0637,-0.063,-0.0596,-0.057,-0.0513,-0.0473,-0.0375,-0.0299,-0.0185,-0.013,-0.0087,-0.0025,0.0019,0.0072,0.0051,0.0073,0.0107,0.0111,0.009,0.0092,0.0094,0.0095,0,0,-0.0692,-0.0674,-0.0674,-0.0665,-0.0637,-0.0633,-0.0595,-0.0556,-0.0516,-0.0459,-0.0402,-0.0294,-0.0263,-0.0191,-0.012,-0.0095,-0.0083,-0.0026,-0.002,-0.0058,0.0047,0.0074,0.0081,-0.0001,-0.0,0.0,0.0068,0,-0.0702,-0.0699,-0.0685,-0.0672,-0.0661,-0.0628,-0.0596,-0.0558,-0.0501,-0.0444,-0.0381,-0.0293,-0.0274,-0.0221,-0.0198,-0.0088,-0.0072,-0.0107,0.0084,0.0088,0.006,0.0086,0.008,0.0141,0.0072,0.0073,0.0074,0,-0.0714,-0.0708,-0.0702,-0.0673,-0.0666,-0.0652,-0.0595,-0.0567,-0.0492,-0.0447,-0.0387,-0.0316,-0.0275,-0.0251,-0.0141,-0.0147,-0.0079,-0.0019,-0.0012,0.0047,0.0123,0.012,0.0152,0.0081,0.0081,0.008,0.008,0,-0.0729,-0.0715,-0.0707,-0.0703,-0.0668,-0.0653,-0.0626,-0.0564,-0.054,-0.0457,-0.0421,-0.0339,-0.0286,-0.0202,-0.0105,-0.0101,0.0023,0.0058,0.0134,0.0137,0.0181,0.0186,0.0117,0.0117,0.0116,0.0116,0.0116,0,-0.0734,-0.073,-0.0716,-0.0715,-0.0705,-0.0671,-0.0646,-0.0605,-0.0547,-0.0521,-0.0437,-0.0396,-0.0266,-0.0176,-0.0099,0.0025,0.0033,0.0104,0.0157,0.0144,0.0146,0.014,0.0141,0.0119,0.0118,0.0118,0.0117,0,-0.0748,-0.0737,-0.0736,-0.0716,-0.0714,-0.0709,-0.0685,-0.0667,-0.0602,-0.0565,-0.0544,-0.0426,-0.0296,-0.0172,-0.0015,0.0042,0.0155,0.0198,0.0153,0.0198,0.022,0.0215,0.028,0.0281,0.0283,0.0284,0.0285,0,-0.0749,-0.0752,-0.0758,-0.0773,-0.0768,-0.0759,-0.0758,-0.0704,-0.0689,-0.0592,-0.0581,-0.0435,-0.0323,-0.0089,0.0061,0.022,0.0209,0.0282,0.0268,0.0191,0.0237,0.0231,0.0225,0.0281,0.0282,0.0283,0.0283,0,-0.0764,-0.0773,-0.0782,-0.0817,-0.083,-0.0838,-0.083,-0.0824,-0.0757,-0.0707,-0.0605,-0.0497,-0.0247,-0.0041,0.0171,0.0246,0.0255,0.03,0.0264,0.0238,0.0198,0.0241,0.0234,0.0289,0.0288,0.0288,0.0288,0.0287,-0.0788,-0.0811,-0.0837,-0.0865,-0.0888,-0.0907,-0.0905,-0.0884,-0.0847,-0.0737,-0.0643,-0.0441,-0.0247,0.0093,0.0224,0.0348,0.0337,0.0352,0.0347,0.0343,0.0329,0.0293,0.0397,0.0397,0.0397,0.0397,0.0397,0,-0.0831,-0.0855,-0.0886,-0.0925,-0.0956,-0.095,-0.0948,-0.0919,-0.0872,-0.0728,-0.06,-0.0357,-0.0116,0.0098,0.0316,0.0417,0.0396,0.0417,0.0374,0.0368,0.0363,0.0347,0.0422,0.0423,0.0423,0.0423,0,0,-0.086,-0.0905,-0.0919,-0.0976,-0.0998,-0.1014,-0.1004,-0.0944,-0.0833,-0.0669,-0.0498,-0.0315,-0.006,0.0083,0.0219,0.0344,0.0318,0.0341,0.031,0.0237,0.023,0.0317,0.0285,0,0,0,0,0]}],[{"header":{"parameterUnit":"m.s-1","parameterCategory":2,"la1":30.2991,"la2":30.254,"lo1":-89.0895,"lo2":-89.0444,"dy":0.0017,"dx":0.0017,"nx":28,"ny":28,"refTime":"2024-08-14T09:00:00:Z","depth":"4","parameterNumber":2,"parameterNumberName":"U-component_of_CURRENTS"},"data":[0,0,0,0,0,0,0,0,0,0,0,0,0,0,0,0,0,0,0,0,0,0,0,0,0,0,0,0,0,0,0,0,0,0,0,0,0,0,0,0,0,0,0,0,0,0,0,0,0,0,0,0,0,0,0,0,0,0,-0.1034,-0.1034,0,-0.1051,-0.1051,-0.1051,-0.1061,-0.1061,-0.1061,-0.1062,-0.1157,-0.1159,-0.1161,0,0,0,0,0,0,0,0,0,0,0,0,0,-0.0963,-0.0965,-0.1034,-0.1034,-0.1035,-0.1051,-0.1051,-0.1051,-0.1061,-0.1061,-0.1061,-0.1062,-0.1156,-0.1159,-0.1161,0,0,0,0,0,0,0,0,0,0,0,0,0,-0.0988,-0.0965,-0.1034,-0.1042,-0.1043,-0.1051,-0.1051,-0.1051,-0.1061,-0.1061,-0.1061,-0.1062,-0.1155,-0.1158,-0.1162,-0.118,0,0,-0.1173,-0.1174,0,0,0,0,0,0,0,0,-0.0986,-0.099,-0.1041,-0.1042,-0.1043,-0.1055,-0.1061,-0.1098,-0.1061,-0.1053,-0.1062,-0.1062,-0.113,-0.1136,-0.1136,-0.1184,-0.1188,-0.1173,-0.1175,-0.1177,-0.1178,0,0,0,0,0,0,0,-0.0985,-0.0989,-0.104,-0.1041,-0.1042,-0.1029,-0.1033,-0.1067,-0.1091,-0.1054,-0.1055,-0.1058,-0.1131,-0.1132,-0.1139,-0.119,-0.1173,-0.1176,-0.1178,-0.118,-0.1247,-0.1246,0,0,0,0,0,0,-0.0987,-0.0988,-0.1039,-0.104,-0.1016,-0.103,-0.1035,-0.105,-0.1089,-0.1095,-0.1058,-0.1059,-0.1126,-0.1134,-0.1142,-0.1179,-0.1177,-0.118,-0.1182,-0.1247,-0.1247,-0.1246,0,0,0,0,0,0,-0.0986,-0.0992,-0.1038,-0.1014,-0.1019,-0.1032,-0.1049,-0.105,-0.1067,-0.1092,-0.1099,-0.1075,-0.1127,-0.1137,-0.1173,-0.1183,-0.1182,-0.1185,-0.1248,-0.1247,-0.1246,-0.1245,0,0,0,0,0,0,-0.0984,-0.0992,-0.1009,-0.1015,-0.1021,-0.1049,-0.1049,-0.1051,-0.1068,-0.107,-0.1109,-0.1116,-0.1128,-0.1168,-0.1177,-0.1188,-0.1188,-0.1248,-0.1247,-0.1247,-0.1246,-0.1245,-0.1244,0,0,0,0,0,-0.0981,-0.1002,-0.101,-0.1017,-0.1044,-0.105,-0.1051,-0.1059,-0.1069,-0.1076,-0.1097,-0.1116,-0.1169,-0.1171,-0.1181,-0.1194,-0.1248,-0.1247,-0.1247,-0.1246,-0.1245,-0.1244,0,0,0,0,0,0,-0.0982,-0.1006,-0.1015,-0.1043,-0.1049,-0.1052,-0.1064,-0.107,-0.1091,-0.1102,-0.1122,-0.1131,-0.1157,-0.1176,-0.1177,-0.1206,-0.1208,-0.1209,-0.1204,-0.1203,-0.1202,-0.1228,-0.1191,0,0,0,0,0,-0.0991,-0.1014,-0.1026,-0.1049,-0.1056,-0.1064,-0.1072,-0.1078,-0.1093,-0.1103,-0.1123,-0.1144,-0.1159,-0.1183,-0.1195,-0.123,-0.1234,-0.1238,-0.1237,-0.1237,-0.1263,-0.128,-0.1283,-0.1243,-0.1243,-0.1243,0,0,-0.0997,-0.1014,-0.1026,-0.105,-0.1059,-0.1067,-0.107,-0.1088,-0.11,-0.1113,-0.114,-0.1144,-0.1163,-0.1183,-0.1198,-0.1207,-0.1238,-0.1236,-0.1235,-0.1262,-0.1279,-0.1284,-0.1287,-0.1243,-0.1243,-0.1243,0,0,-0.1003,-0.1037,-0.1049,-0.1057,-0.1076,-0.1084,-0.1093,-0.1103,-0.1118,-0.1138,-0.1141,-0.1159,-0.1184,-0.1198,-0.121,-0.1218,-0.1224,-0.1211,-0.1246,-0.1262,-0.1266,-0.127,-0.1232,-0.1233,-0.1222,-0.1222,-0.1222,0,-0.1012,-0.1031,-0.1052,-0.1059,-0.1074,-0.1093,-0.1106,-0.1119,-0.1137,-0.1158,-0.1148,-0.1181,-0.1194,-0.123,-0.1222,-0.122,-0.1211,-0.125,-0.1263,-0.1267,-0.1271,-0.1232,-0.1233,-0.1222,-0.1222,-0.1222,-0.1222,0,-0.101,-0.1035,-0.1044,-0.1066,-0.1084,-0.1101,-0.1122,-0.1146,-0.1164,-0.1174,-0.1208,-0.1213,-0.124,-0.1231,-0.1234,-0.1268,-0.1241,-0.125,-0.127,-0.1275,-0.1232,-0.1234,-0.1222,-0.1222,-0.1222,-0.1222,0,0,-0.1006,-0.104,-0.1044,-0.1065,-0.1095,-0.1113,-0.1146,-0.1184,-0.1219,-0.1227,-0.1261,-0.1275,-0.1283,-0.1296,-0.1296,-0.1313,-0.1307,-0.1299,-0.13,-0.1269,-0.1302,-0.1179,-0.1167,-0.132,-0.1321,-0.1322,-0.1243,0,-0.1001,-0.1026,-0.1045,-0.1079,-0.1098,-0.1138,-0.1169,-0.1209,-0.1238,-0.127,-0.1293,-0.1314,-0.1306,-0.1316,-0.1334,-0.1315,-0.1318,-0.1325,-0.1297,-0.1295,-0.1193,-0.1168,-0.1327,-0.1243,-0.1244,-0.1244,-0.1244,0,-0.0982,-0.1011,-0.1042,-0.1106,-0.1121,-0.1146,-0.1224,-0.1252,-0.1305,-0.1326,-0.1361,-0.1367,-0.1391,-0.1378,-0.1373,-0.1377,-0.1349,-0.133,-0.1326,-0.1225,-0.1176,-0.1249,-0.1246,-0.1246,-0.1246,-0.1246,-0.1245,0,-0.0962,-0.1011,-0.1047,-0.1061,-0.1128,-0.1168,-0.1211,-0.1272,-0.1303,-0.1362,-0.1376,-0.1412,-0.1411,-0.1411,-0.1357,-0.1374,-0.1326,-0.1342,-0.1203,-0.1191,-0.133,-0.1328,-0.135,-0.135,-0.135,-0.135,-0.1351,0,-0.0943,-0.0974,-0.1045,-0.1063,-0.1121,-0.1171,-0.1233,-0.128,-0.1334,-0.1354,-0.1403,-0.1406,-0.1424,-0.1391,-0.1362,-0.1257,-0.1326,-0.1204,-0.1172,-0.1321,-0.1319,-0.1327,-0.1326,-0.1347,-0.1348,-0.1349,-0.1349,0,-0.0905,-0.0947,-0.0995,-0.1079,-0.1107,-0.115,-0.123,-0.1263,-0.1325,-0.1347,-0.1361,-0.1393,-0.1346,-0.1321,-0.1287,-0.1231,-0.1167,-0.1117,-0.1231,-0.1208,-0.1021,-0.102,-0.0965,-0.096,-0.0956,-0.0953,-0.095,0,-0.0884,-0.0903,-0.0994,-0.1019,-0.1059,-0.1127,-0.1161,-0.1244,-0.1263,-0.1318,-0.1309,-0.1296,-0.1295,-0.1134,-0.1136,-0.1044,-0.1037,-0.0987,-0.1057,-0.1011,-0.0986,-0.0992,-0.0997,-0.0944,-0.0942,-0.0941,-0.094,0,-0.0845,-0.0883,-0.092,-0.0969,-0.1015,-0.1059,-0.1112,-0.112,-0.1191,-0.1259,-0.1219,-0.1179,-0.1111,-0.106,-0.0973,-0.0926,-0.1017,-0.0945,-0.0955,-0.1021,-0.0984,-0.0965,-0.0974,-0.0926,-0.0928,-0.093,-0.093,0,-0.0812,-0.0823,-0.0864,-0.0899,-0.0947,-0.0956,-0.101,-0.1022,-0.1052,-0.1118,-0.1096,-0.1083,-0.1105,-0.0995,-0.0925,-0.0848,-0.0852,-0.0832,-0.0848,-0.0864,-0.0864,-0.0805,-0.0661,0,0,0,0,0,-0.0769,-0.0759,-0.0786,-0.0812,-0.0854,-0.0874,-0.0949,-0.1001,-0.1073,-0.1014,-0.1053,-0.0989,-0.0896,-0.0894,-0.0788,-0.0859,-0.0842,-0.0732,-0.0828,-0.0848,-0.0864,-0.0872,0,0,0,0,0,0,-0.0733,-0.075,-0.0752,-0.0718,-0.0712,-0.0743,-0.0784,-0.0845,-0.0826,-0.0904,-0.0861,-0.0908,-0.0833,-0.0921,-0.0758,-0.075,-0.0784,-0.0728,-0.0724,-0.0839,-0.0853,-0.0867,-0.0881,0,0,0,0,0]},{"header":{"parameterUnit":"m.s-1","parameterCategory":2,"la1":30.2991,"la2":30.254,"lo1":-89.0895,"lo2":-89.0444,"dy":0.0017,"dx":0.0017,"nx":28,"ny":28,"refTime":"2024-08-14T09:00:00:Z","depth":"4","parameterNumber":3,"parameterNumberName":"V-component_of_CURRENTS"},"data":[0,0,0,0,0,0,0,0,0,0,0,0,0,0,0,0,0,0,0,0,0,0,0,0,0,0,0,0,0,0,0,0,0,0,0,0,0,0,0,0,0,0,0,0,0,0,0,0,0,0,0,0,0,0,0,0,0,0,-0.044,-0.044,0,-0.0455,-0.0455,-0.0455,-0.0433,-0.0432,-0.0432,-0.0431,-0.0379,-0.0378,-0.0378,0,0,0,0,0,0,0,0,0,0,0,0,0,-0.0444,-0.0444,-0.044,-0.044,-0.0441,-0.0455,-0.0455,-0.0455,-0.0433,-0.0432,-0.0431,-0.0431,-0.0379,-0.0379,-0.0378,0,0,0,0,0,0,0,0,0,0,0,0,0,-0.0448,-0.0444,-0.044,-0.0432,-0.0431,-0.0455,-0.0455,-0.0455,-0.0433,-0.0432,-0.0431,-0.043,-0.038,-0.0379,-0.0378,-0.0392,0,0,-0.0374,-0.0374,0,0,0,0,0,0,0,0,-0.0448,-0.0448,-0.0433,-0.0432,-0.0432,-0.0442,-0.0438,-0.0431,-0.0434,-0.0432,-0.0431,-0.043,-0.0395,-0.0393,-0.0398,-0.039,-0.0388,-0.0374,-0.0374,-0.0373,-0.0373,0,0,0,0,0,0,0,-0.0448,-0.0448,-0.0445,-0.0433,-0.0433,-0.0445,-0.0444,-0.0437,-0.0417,-0.0432,-0.043,-0.0434,-0.0394,-0.0399,-0.0396,-0.0387,-0.0374,-0.0373,-0.0373,-0.0372,-0.0382,-0.0383,0,0,0,0,0,0,-0.0446,-0.0447,-0.0445,-0.0446,-0.0438,-0.0446,-0.0445,-0.0439,-0.0419,-0.0416,-0.0435,-0.0433,-0.0401,-0.0398,-0.0394,-0.04,-0.0373,-0.0372,-0.0372,-0.0381,-0.0382,-0.0383,0,0,0,0,0,0,-0.0446,-0.0445,-0.0444,-0.0448,-0.0449,-0.0447,-0.0441,-0.044,-0.0443,-0.0422,-0.0417,-0.0439,-0.04,-0.0396,-0.0394,-0.0397,-0.0372,-0.0371,-0.038,-0.0381,-0.0383,-0.0417,0,0,0,0,0,0,-0.0446,-0.0445,-0.0448,-0.0448,-0.0448,-0.0459,-0.0442,-0.0441,-0.0447,-0.0445,-0.0424,-0.0418,-0.0399,-0.0396,-0.0393,-0.0396,-0.037,-0.0379,-0.0381,-0.0382,-0.0414,-0.0419,-0.0423,0,0,0,0,0,-0.0446,-0.0451,-0.0448,-0.0448,-0.045,-0.0459,-0.0461,-0.0456,-0.0449,-0.0454,-0.0444,-0.0419,-0.0404,-0.0396,-0.0393,-0.0395,-0.0378,-0.038,-0.0382,-0.0413,-0.0418,-0.0423,0,0,0,0,0,0,-0.0453,-0.0449,-0.0446,-0.0449,-0.0455,-0.0456,-0.0466,-0.0462,-0.0461,-0.0459,-0.0433,-0.0427,-0.0432,-0.0413,-0.0404,-0.0404,-0.0386,-0.0388,-0.0411,-0.0416,-0.042,-0.0383,-0.0369,0,0,0,0,0,-0.0458,-0.046,-0.0459,-0.0464,-0.0469,-0.047,-0.0476,-0.0473,-0.047,-0.0469,-0.0458,-0.0445,-0.0439,-0.0426,-0.0425,-0.0421,-0.0372,-0.042,-0.0425,-0.0428,-0.0398,-0.0327,-0.032,-0.039,-0.039,-0.039,0,0,-0.0464,-0.0462,-0.0465,-0.0467,-0.0473,-0.048,-0.047,-0.0483,-0.0482,-0.0464,-0.0467,-0.0468,-0.0447,-0.0448,-0.0446,-0.0428,-0.0393,-0.0431,-0.0434,-0.04,-0.0328,-0.032,-0.0314,-0.0391,-0.0391,-0.0391,0,0,-0.0479,-0.0476,-0.0485,-0.0491,-0.0501,-0.0498,-0.0502,-0.0509,-0.0504,-0.0513,-0.0501,-0.0492,-0.0494,-0.0466,-0.0454,-0.0477,-0.0428,-0.0494,-0.0469,-0.0402,-0.0395,-0.0387,-0.035,-0.0339,-0.0483,-0.0483,-0.0483,0,-0.0489,-0.0492,-0.0491,-0.0502,-0.0506,-0.0504,-0.0514,-0.0512,-0.0518,-0.0506,-0.0516,-0.0499,-0.049,-0.0456,-0.0471,-0.0481,-0.0448,-0.0452,-0.0404,-0.0395,-0.0387,-0.035,-0.0337,-0.0484,-0.0484,-0.0484,-0.0484,0,-0.0509,-0.0514,-0.0522,-0.0527,-0.0532,-0.0544,-0.0538,-0.0538,-0.0537,-0.0527,-0.0513,-0.0504,-0.0476,-0.049,-0.0487,-0.0435,-0.0435,-0.0428,-0.0384,-0.0381,-0.0344,-0.033,-0.0487,-0.0487,-0.0486,-0.0485,0,0,-0.0524,-0.0533,-0.0538,-0.0541,-0.0545,-0.055,-0.0543,-0.0528,-0.0509,-0.0513,-0.0479,-0.0477,-0.0463,-0.0447,-0.0443,-0.0387,-0.0327,-0.0384,-0.038,-0.0334,-0.0197,-0.0212,-0.0198,-0.0312,-0.0309,-0.0306,-0.0206,0,-0.054,-0.0559,-0.0557,-0.057,-0.0577,-0.0565,-0.0554,-0.0538,-0.052,-0.0491,-0.0457,-0.0439,-0.0448,-0.0441,-0.0385,-0.0348,-0.0286,-0.0355,-0.0215,-0.0211,-0.0212,-0.018,-0.0297,-0.0195,-0.0191,-0.0189,-0.0187,0,-0.0559,-0.0567,-0.0584,-0.0578,-0.058,-0.0584,-0.0552,-0.0542,-0.049,-0.0474,-0.0429,-0.0409,-0.0344,-0.0352,-0.0236,-0.0284,-0.0231,-0.0195,-0.019,-0.0168,-0.0197,-0.0189,-0.0161,-0.0163,-0.0165,-0.0167,-0.0168,0,-0.0567,-0.0582,-0.0593,-0.0598,-0.0593,-0.0588,-0.0578,-0.0537,-0.0523,-0.0455,-0.0438,-0.0355,-0.0322,-0.0232,-0.0175,-0.0196,-0.0043,-0.0059,-0.0014,-0.0017,-0.0018,-0.0026,0.0062,0.0062,0.0062,0.0061,0.0061,0,-0.0575,-0.0586,-0.0601,-0.0609,-0.0616,-0.0601,-0.0589,-0.0562,-0.0517,-0.0496,-0.0431,-0.0398,-0.0287,-0.0206,-0.0142,-0.0039,-0.0009,0.0016,0.0026,-0.0044,-0.0056,-0.001,-0.0019,0.0065,0.0064,0.0063,0.0063,0,-0.0578,-0.0589,-0.0608,-0.0617,-0.0623,-0.0628,-0.0622,-0.0608,-0.0559,-0.0526,-0.0507,-0.0414,-0.0302,-0.0195,-0.0048,-0.0006,0.0097,0.0131,0.004,0.0039,0.0069,0.0056,0.0204,0.0204,0.0205,0.0205,0.0206,0,-0.0577,-0.0591,-0.0628,-0.0651,-0.0661,-0.0668,-0.0674,-0.0638,-0.0623,-0.0547,-0.0534,-0.0414,-0.0345,-0.0141,-0.0034,0.0125,0.0136,0.0185,0.0146,0.0097,0.0093,0.0079,0.0065,0.0207,0.0207,0.0207,0.0207,0,-0.0582,-0.0606,-0.0628,-0.0679,-0.0705,-0.0723,-0.0726,-0.0713,-0.0661,-0.0628,-0.0534,-0.0422,-0.0287,-0.0138,-0.0003,0.0097,0.015,0.0191,0.0191,0.0155,0.0103,0.0094,0.008,0.0209,0.0209,0.0209,0.0209,0,-0.0597,-0.0623,-0.0667,-0.0704,-0.0747,-0.0764,-0.0755,-0.0724,-0.0694,-0.0601,-0.0576,-0.0424,-0.0329,-0.0153,-0.0043,0.0074,0.0093,0.0107,0.0111,0.011,0.0044,-0.0039,0.0061,0,0,0,0,0,-0.0613,-0.0648,-0.0689,-0.0734,-0.0774,-0.0792,-0.0789,-0.0768,-0.0719,-0.0655,-0.0606,-0.0478,-0.0281,-0.0197,-0.0077,-0.0049,0.0098,0.009,0.0112,0.0221,0.0219,0.0155,0,0,0,0,0,0,-0.0631,-0.0678,-0.0693,-0.0749,-0.0781,-0.0818,-0.0812,-0.0777,-0.0724,-0.066,-0.0547,-0.0477,-0.028,-0.0349,-0.0085,-0.005,-0.0027,0.0189,0.0191,0.0222,0.022,0.0218,0.0152,0,0,0,0,0]}]]